| time (UTC) | temp F | wind direction | speed MPH | gust MPH | rain 1hr in | rain 24hr in | rain mn in | humidity % | barometer mb |
| 20260902210112 | 59 | 203 | 2.0 | 12.0 | 0.04 | 0.63 | 0.60 | 91 | 1000.1 |
| 20260902205605 | 59 | 195 | 3.0 | 12.0 | 0.04 | 0.63 | 0.60 | 91 | 999.6 |
| 20260902205109 | 58 | 195 | 2.0 | 12.0 | 0.05 | 0.63 | 0.60 | 91 | 999.6 |
| 20260902204604 | 58 | 205 | 5.0 | 12.0 | 0.05 | 0.63 | 0.60 | 91 | 999.4 |
| 20260902204104 | 58 | 215 | 3.0 | 8.0 | 0.07 | 0.63 | 0.60 | 91 | 999.3 |
| 20260902203605 | 58 | 197 | 3.0 | 10.0 | 0.08 | 0.63 | 0.60 | 91 | 999.4 |
| 20260902203113 | 58 | 207 | 3.0 | 10.0 | 0.08 | 0.63 | 0.60 | 91 | 999.6 |
| 20260902202608 | 58 | 219 | 3.0 | 10.0 | 0.08 | 0.63 | 0.60 | 91 | 999.5 |
| 20260902202106 | 58 | 223 | 2.0 | 10.0 | 0.08 | 0.63 | 0.60 | 91 | 999.4 |
| 20260902201106 | 58 | 195 | 2.0 | 8.0 | 0.09 | 0.62 | 0.59 | 91 | 999.6 |
| 20260902200609 | 58 | 207 | 3.0 | 10.0 | 0.08 | 0.60 | 0.57 | 91 | 999.5 |
| 20260902200104 | 58 | 220 | 3.0 | 10.0 | 0.07 | 0.59 | 0.56 | 91 | 999.6 |
| 20260902195603 | 58 | 223 | 3.0 | 8.0 | 0.07 | 0.59 | 0.56 | 90 | 999.5 |
| 20260902195104 | 58 | 196 | 2.0 | 9.0 | 0.06 | 0.58 | 0.55 | 91 | 999.7 |
| 20260902194604 | 58 | 225 | 3.0 | 9.0 | 0.06 | 0.58 | 0.55 | 90 | 999.9 |
| 20260902194104 | 58 | 210 | 3.0 | 10.0 | 0.04 | 0.56 | 0.53 | 90 | 1000.0 |
| 20260902193605 | 58 | 202 | 2.0 | 10.0 | 0.04 | 0.55 | 0.52 | 90 | 999.9 |
| 20260902193105 | 58 | 208 | 3.0 | 12.0 | 0.05 | 0.55 | 0.52 | 90 | 999.9 |
| 20260902192604 | 58 | 223 | 2.0 | 12.0 | 0.07 | 0.55 | 0.52 | 90 | 1000.0 |
| 20260902192104 | 58 | 219 | 3.0 | 12.0 | 0.07 | 0.55 | 0.52 | 90 | 1000.2 |
| 20260902191604 | 58 | 219 | 3.0 | 8.0 | 0.06 | 0.54 | 0.51 | 90 | 1000.2 |
| 20260902191105 | 59 | 222 | 2.0 | 6.0 | 0.05 | 0.53 | 0.50 | 91 | 1000.2 |
| 20260902190605 | 59 | 202 | 2.0 | 6.0 | 0.04 | 0.52 | 0.49 | 91 | 1000.2 |
| 20260902185105 | 58 | 226 | 2.0 | 6.0 | 0.06 | 0.52 | 0.49 | 90 | 1000.5 |
| 20260902184604 | 58 | 196 | 2.0 | 6.0 | 0.07 | 0.52 | 0.49 | 90 | 1000.6 |
| 20260902184104 | 58 | 232 | 2.0 | 8.0 | 0.07 | 0.52 | 0.49 | 90 | 1000.7 |
| 20260902183604 | 58 | 200 | 2.0 | 8.0 | 0.06 | 0.51 | 0.48 | 90 | 1000.9 |
| 20260902183105 | 58 | 230 | 0.0 | 6.0 | 0.05 | 0.50 | 0.47 | 90 | 1001.1 |
| 20260902182604 | 58 | 227 | 2.0 | 6.0 | 0.04 | 0.48 | 0.45 | 90 | 1001.2 |
| 20260902182104 | 59 | 218 | 1.0 | 9.0 | 0.04 | 0.48 | 0.45 | 90 | 1001.3 |
| 20260902181604 | 59 | 195 | 2.0 | 9.0 | 0.05 | 0.48 | 0.45 | 90 | 1001.4 |
| 20260902181105 | 58 | 213 | 2.0 | 9.0 | 0.06 | 0.48 | 0.45 | 90 | 1001.6 |
| 20260902180604 | 59 | 225 | 1.0 | 5.0 | 0.07 | 0.48 | 0.45 | 90 | 1001.6 |
| 20260902180104 | 58 | 229 | 1.0 | 5.0 | 0.07 | 0.47 | 0.44 | 90 | 1001.8 |
| 20260902175106 | 58 | 222 | 2.0 | 6.0 | 0.08 | 0.46 | 0.43 | 90 | 1001.9 |
| 20260902174604 | 58 | 225 | 1.0 | 3.0 | 0.07 | 0.45 | 0.42 | 90 | 1001.9 |
| 20260902174104 | 58 | 226 | 1.0 | 6.0 | 0.09 | 0.45 | 0.42 | 90 | 1002.0 |
| 20260902173605 | 58 | 225 | 2.0 | 6.0 | 0.10 | 0.45 | 0.42 | 90 | 1002.1 |
| 20260902172606 | 58 | 224 | 2.0 | 5.0 | 0.12 | 0.44 | 0.41 | 90 | 1002.2 |
| 20260902172104 | 58 | 219 | 1.0 | 5.0 | 0.13 | 0.44 | 0.41 | 90 | 1002.4 |
| 20260902171606 | 58 | 226 | 1.0 | 3.0 | 0.13 | 0.43 | 0.40 | 90 | 1002.4 |
| 20260902171104 | 58 | 219 | 1.0 | 6.0 | 0.14 | 0.42 | 0.39 | 90 | 1002.5 |
| 20260902170604 | 58 | 229 | 0.0 | 6.0 | 0.14 | 0.41 | 0.38 | 90 | 1002.5 |
| 20260902165605 | 58 | 213 | 1.0 | 3.0 | 0.14 | 0.39 | 0.36 | 90 | 1002.6 |
| 20260902165104 | 58 | 218 | 1.0 | 5.0 | 0.13 | 0.38 | 0.35 | 90 | 1002.6 |
| 20260902164605 | 58 | 218 | 1.0 | 5.0 | 0.13 | 0.38 | 0.35 | 89 | 1002.6 |
| 20260902164104 | 58 | 230 | 2.0 | 6.0 | 0.11 | 0.36 | 0.33 | 89 | 1002.7 |
| 20260902163604 | 58 | 225 | 1.0 | 6.0 | 0.11 | 0.35 | 0.32 | 89 | 1002.7 |
| 20260902163104 | 58 | 232 | 0.0 | 3.0 | 0.11 | 0.34 | 0.31 | 89 | 1002.8 |
| 20260902162605 | 58 | 232 | 0.0 | 5.0 | 0.09 | 0.32 | 0.29 | 89 | 1002.8 |
| 20260902162104 | 58 | 229 | 0.0 | 5.0 | 0.09 | 0.31 | 0.28 | 89 | 1002.9 |
| 20260902161605 | 58 | 223 | 1.0 | 6.0 | 0.09 | 0.30 | 0.27 | 89 | 1002.8 |
| 20260902161104 | 58 | 216 | 0.0 | 6.0 | 0.08 | 0.28 | 0.25 | 89 | 1002.9 |
| 20260902160605 | 58 | 196 | 0.0 | 3.0 | 0.10 | 0.27 | 0.24 | 89 | 1003.0 |
| 20260902160105 | 58 | 195 | 1.0 | 9.0 | 0.11 | 0.26 | 0.23 | 89 | 1003.0 |
| 20260902155603 | 58 | 230 | 1.0 | 9.0 | 0.11 | 0.25 | 0.22 | 89 | 1002.9 |
| 20260902155105 | 58 | 195 | 2.0 | 5.0 | 0.12 | 0.25 | 0.22 | 89 | 1003.1 |
| 20260902154613 | 58 | 211 | 2.0 | 5.0 | 0.13 | 0.25 | 0.22 | 89 | 1003.1 |
| 20260902154104 | 58 | 226 | 2.0 | 5.0 | 0.14 | 0.25 | 0.22 | 88 | 1003.1 |
| 20260902153107 | 58 | 228 | 1.0 | 3.0 | 0.16 | 0.23 | 0.20 | 88 | 1003.1 |
| 20260902152605 | 58 | 223 | 1.0 | 7.0 | 0.16 | 0.23 | 0.20 | 88 | 1003.1 |
| 20260902152103 | 58 | 218 | 1.0 | 7.0 | 0.16 | 0.22 | 0.19 | 88 | 1003.2 |
| 20260902151606 | 58 | 224 | 2.0 | 5.0 | 0.15 | 0.21 | 0.18 | 88 | 1003.1 |
| 20260902151105 | 59 | 220 | 1.0 | 5.0 | 0.15 | 0.20 | 0.17 | 88 | 1003.2 |
| 20260902150105 | 59 | 220 | 1.0 | 3.0 | 0.12 | 0.15 | 0.12 | 87 | 1003.3 |
| 20260902145604 | 59 | 224 | 1.0 | 2.0 | 0.11 | 0.14 | 0.11 | 87 | 1003.4 |
| 20260902145104 | 59 | 222 | 1.0 | 3.0 | 0.10 | 0.13 | 0.10 | 87 | 1003.4 |
| 20260902144604 | 59 | 195 | 1.0 | 3.0 | 0.09 | 0.12 | 0.09 | 87 | 1003.5 |
| 20260902144104 | 59 | 195 | 1.0 | 3.0 | 0.08 | 0.11 | 0.08 | 87 | 1003.5 |
| 20260902143605 | 59 | 222 | 1.0 | 9.0 | 0.05 | 0.08 | 0.05 | 87 | 1003.5 |
| 20260902142605 | 59 | 222 | 1.0 | 5.0 | 0.04 | 0.07 | 0.04 | 86 | 1003.7 |
| 20260902142104 | 59 | 195 | 0.0 | 6.0 | 0.03 | 0.06 | 0.03 | 86 | 1003.8 |
| 20260902141105 | 59 | 228 | 1.0 | 3.0 | 0.02 | 0.05 | 0.02 | 86 | 1003.8 |
| 20260902140604 | 59 | 227 | 1.0 | 3.0 | 0.00 | 0.03 | 0.00 | 86 | 1003.9 |
| 20260902140104 | 59 | 222 | 1.0 | 3.0 | 0.00 | 0.03 | 0.00 | 86 | 1003.8 |
| 20260902135607 | 59 | 195 | 1.0 | 3.0 | 0.00 | 0.03 | 0.00 | 86 | 1003.8 |
| 20260902135103 | 59 | 224 | 2.0 | 6.0 | 0.00 | 0.03 | 0.00 | 86 | 1003.8 |
| 20260902133104 | 59 | 227 | 1.0 | 3.0 | 0.00 | 0.03 | 0.00 | 86 | 1004.0 |
| 20260902132606 | 59 | 221 | 1.0 | 3.0 | 0.00 | 0.03 | 0.00 | 86 | 1004.1 |
| 20260902132111 | 59 | 195 | 2.0 | 3.0 | 0.00 | 0.03 | 0.00 | 87 | 1004.0 |
| 20260902131604 | 59 | 195 | 1.0 | 6.0 | 0.00 | 0.03 | 0.00 | 87 | 1004.1 |
| 20260902131103 | 59 | 215 | 1.0 | 7.0 | 0.00 | 0.03 | 0.00 | 87 | 1004.2 |
| 20260902130105 | 59 | 232 | 2.0 | 7.0 | 0.00 | 0.03 | 0.00 | 87 | 1004.4 |
| 20260902125605 | 59 | 195 | 2.0 | 6.0 | 0.00 | 0.03 | 0.00 | 87 | 1004.5 |
| 20260902124605 | 59 | 229 | 1.0 | 3.0 | 0.00 | 0.03 | 0.00 | 87 | 1004.6 |
| 20260902124105 | 59 | 224 | 1.0 | 3.0 | 0.00 | 0.03 | 0.00 | 87 | 1004.7 |
| 20260902123603 | 59 | 195 | 1.0 | 3.0 | 0.00 | 0.03 | 0.00 | 87 | 1004.8 |
| 20260902123104 | 59 | 200 | 1.0 | 3.0 | 0.00 | 0.03 | 0.00 | 87 | 1004.9 |
| 20260902122106 | 59 | 195 | 1.0 | 3.0 | 0.00 | 0.03 | 0.00 | 87 | 1005.0 |
| 20260902121103 | 59 | 195 | 2.0 | 5.0 | 0.00 | 0.03 | 0.00 | 86 | 1005.3 |
| 20260902120603 | 59 | 207 | 2.0 | 5.0 | 0.00 | 0.03 | 0.00 | 86 | 1005.2 |
| 20260902120105 | 59 | 222 | 2.0 | 8.0 | 0.00 | 0.03 | 0.00 | 87 | 1005.3 |
| 20260902115603 | 59 | 195 | 2.0 | 8.0 | 0.00 | 0.03 | 0.00 | 87 | 1005.3 |
| 20260902115105 | 59 | 195 | 2.0 | 5.0 | 0.00 | 0.03 | 0.00 | 87 | 1005.4 |
| 20260902114604 | 59 | 209 | 2.0 | 5.0 | 0.00 | 0.03 | 0.00 | 87 | 1005.6 |
| 20260902114105 | 59 | 195 | 2.0 | 5.0 | 0.00 | 0.03 | 0.00 | 87 | 1005.6 |
| 20260902113604 | 59 | 200 | 2.0 | 8.0 | 0.00 | 0.03 | 0.00 | 86 | 1005.6 |
| 20260902112603 | 59 | 197 | 2.0 | 8.0 | 0.00 | 0.03 | 0.00 | 86 | 1005.9 |
| 20260902112104 | 59 | 195 | 3.0 | 8.0 | 0.00 | 0.03 | 0.00 | 86 | 1006.0 |
| 20260902111604 | 59 | 195 | 2.0 | 5.0 | 0.00 | 0.03 | 0.00 | 86 | 1006.0 |
| 20260902110605 | 59 | 195 | 2.0 | 7.0 | 0.00 | 0.03 | 0.00 | 86 | 1006.1 |
| 20260902110104 | 59 | 195 | 2.0 | 9.0 | 0.00 | 0.03 | 0.00 | 86 | 1006.1 |
| 20260902105605 | 59 | 195 | 2.0 | 9.0 | 0.00 | 0.03 | 0.00 | 86 | 1006.1 |
| 20260902105106 | 59 | 195 | 2.0 | 5.0 | 0.00 | 0.03 | 0.00 | 86 | 1006.1 |
| 20260902104103 | 59 | 195 | 3.0 | 9.0 | 0.00 | 0.03 | 0.00 | 86 | 1006.2 |
| 20260902103604 | 59 | 232 | 2.0 | 6.0 | 0.00 | 0.03 | 0.00 | 86 | 1006.1 |
| 20260902103103 | 59 | 224 | 1.0 | 6.0 | 0.00 | 0.03 | 0.00 | 86 | 1006.2 |
| 20260902102604 | 59 | 195 | 3.0 | 6.0 | 0.00 | 0.03 | 0.00 | 86 | 1006.2 |
| 20260902102103 | 59 | 195 | 1.0 | 5.0 | 0.00 | 0.03 | 0.00 | 86 | 1006.3 |
| 20260902101604 | 59 | 195 | 2.0 | 6.0 | 0.00 | 0.03 | 0.00 | 87 | 1006.4 |
| 20260902101104 | 59 | 195 | 2.0 | 8.0 | 0.00 | 0.03 | 0.00 | 87 | 1006.2 |
| 20260902100604 | 59 | 224 | 3.0 | 8.0 | 0.00 | 0.03 | 0.00 | 86 | 1006.2 |
| 20260902100104 | 59 | 225 | 2.0 | 5.0 | 0.00 | 0.03 | 0.00 | 86 | 1006.2 |
| 20260902095605 | 59 | 195 | 1.0 | 3.0 | 0.00 | 0.03 | 0.00 | 86 | 1006.4 |
| 20260902095104 | 59 | 221 | 2.0 | 3.0 | 0.00 | 0.03 | 0.00 | 86 | 1006.5 |
| 20260902094603 | 59 | 195 | 1.0 | 8.0 | 0.00 | 0.03 | 0.00 | 86 | 1006.5 |
| 20260902094104 | 59 | 195 | 2.0 | 8.0 | 0.00 | 0.03 | 0.00 | 86 | 1006.6 |
| 20260902093104 | 59 | 195 | 2.0 | 6.0 | 0.00 | 0.03 | 0.00 | 86 | 1006.6 |
| 20260902092103 | 59 | 209 | 1.0 | 5.0 | 0.00 | 0.03 | 0.00 | 86 | 1006.7 |
| 20260902091603 | 59 | 227 | 1.0 | 5.0 | 0.00 | 0.03 | 0.00 | 87 | 1006.8 |
| 20260902091107 | 60 | 197 | 2.0 | 6.0 | 0.00 | 0.03 | 0.00 | 87 | 1006.8 |
| 20260902090609 | 60 | 208 | 1.0 | 8.0 | 0.00 | 0.03 | 0.00 | 87 | 1006.9 |
| 20260902090107 | 60 | 195 | 2.0 | 8.0 | 0.00 | 0.03 | 0.00 | 87 | 1006.9 |
| 20260902085606 | 60 | 195 | 2.0 | 8.0 | 0.00 | 0.03 | 0.00 | 87 | 1006.9 |
| 20260902085107 | 60 | 195 | 2.0 | 8.0 | 0.00 | 0.03 | 0.00 | 87 | 1006.9 |
| 20260902084606 | 60 | 195 | 2.0 | 8.0 | 0.00 | 0.03 | 0.00 | 87 | 1007.0 |
| 20260902084107 | 60 | 195 | 1.0 | 3.0 | 0.00 | 0.03 | 0.00 | 87 | 1007.2 |
| 20260902083608 | 60 | 195 | 2.0 | 5.0 | 0.00 | 0.03 | 0.00 | 87 | 1007.2 |
| 20260902082607 | 60 | 195 | 2.0 | 6.0 | 0.00 | 0.03 | 0.00 | 87 | 1007.1 |
| 20260902081607 | 60 | 195 | 1.0 | 3.0 | 0.00 | 0.03 | 0.00 | 87 | 1007.2 |
| 20260902081108 | 60 | 195 | 2.0 | 5.0 | 0.00 | 0.03 | 0.00 | 87 | 1007.2 |
| 20260902080107 | 60 | 195 | 2.0 | 9.0 | 0.00 | 0.03 | 0.00 | 87 | 1007.3 |
| 20260902075607 | 60 | 195 | 2.0 | 9.0 | 0.00 | 0.03 | 0.00 | 87 | 1007.4 |
| 20260902075106 | 60 | 195 | 2.0 | 9.0 | 0.00 | 0.03 | 0.00 | 87 | 1007.4 |
| 20260902074606 | 60 | 195 | 2.0 | 3.0 | 0.00 | 0.03 | 0.00 | 87 | 1007.5 |
| 20260902074108 | 60 | 195 | 1.0 | 5.0 | 0.00 | 0.03 | 0.00 | 87 | 1007.5 |
| 20260902073606 | 60 | 195 | 1.0 | 5.0 | 0.00 | 0.03 | 0.00 | 87 | 1007.6 |
| 20260902073112 | 60 | 195 | 1.0 | 6.0 | 0.00 | 0.03 | 0.00 | 86 | 1007.6 |
| 20260902072109 | 60 | 195 | 1.0 | 5.0 | 0.00 | 0.03 | 0.00 | 86 | 1007.7 |
| 20260902071607 | 60 | 195 | 1.0 | 3.0 | 0.00 | 0.03 | 0.00 | 86 | 1007.8 |
| 20260902065607 | 60 | 210 | 1.0 | 5.0 | 0.00 | 0.03 | 0.03 | 86 | 1008.0 |
| 20260902065106 | 60 | 195 | 2.0 | 3.0 | 0.00 | 0.03 | 0.03 | 86 | 1008.0 |
| 20260902064107 | 60 | 195 | 1.0 | 3.0 | 0.00 | 0.03 | 0.03 | 86 | 1007.9 |
| 20260902063606 | 60 | 195 | 0.0 | 5.0 | 0.00 | 0.03 | 0.03 | 86 | 1007.9 |
| 20260902063106 | 60 | 199 | 1.0 | 5.0 | 0.00 | 0.03 | 0.03 | 86 | 1008.0 |
| 20260902062608 | 60 | 195 | 1.0 | 3.0 | 0.00 | 0.03 | 0.03 | 86 | 1008.0 |
| 20260902062106 | 60 | 195 | 2.0 | 3.0 | 0.00 | 0.03 | 0.03 | 86 | 1008.1 |
| 20260902061606 | 60 | 195 | 1.0 | 3.0 | 0.00 | 0.03 | 0.03 | 86 | 1008.0 |
| 20260902061107 | 59 | 195 | 2.0 | 5.0 | 0.00 | 0.03 | 0.03 | 86 | 1008.0 |
| 20260902060607 | 59 | 195 | 1.0 | 5.0 | 0.00 | 0.03 | 0.03 | 86 | 1008.0 |
| 20260902060107 | 59 | 224 | 1.0 | 3.0 | 0.00 | 0.03 | 0.03 | 86 | 1008.1 |
| 20260902055608 | 59 | 195 | 2.0 | 3.0 | 0.00 | 0.03 | 0.03 | 86 | 1008.2 |
| 20260902055107 | 59 | 195 | 0.0 | 3.0 | 0.00 | 0.03 | 0.03 | 86 | 1008.2 |
| 20260902054606 | 59 | 195 | 1.0 | 3.0 | 0.00 | 0.03 | 0.03 | 86 | 1008.2 |
| 20260902054108 | 59 | 195 | 1.0 | 3.0 | 0.00 | 0.03 | 0.03 | 86 | 1008.2 |
| 20260902053607 | 59 | 195 | 0.0 | 2.0 | 0.00 | 0.03 | 0.03 | 86 | 1008.3 |
| 20260902053108 | 59 | 195 | 0.0 | 3.0 | 0.00 | 0.03 | 0.03 | 86 | 1008.4 |
| 20260902052607 | 59 | 195 | 1.0 | 3.0 | 0.00 | 0.03 | 0.03 | 86 | 1008.4 |
| 20260902052106 | 59 | 221 | 0.0 | 3.0 | 0.00 | 0.03 | 0.03 | 86 | 1008.3 |
| 20260902051608 | 59 | 221 | 0.0 | 3.0 | 0.00 | 0.03 | 0.03 | 86 | 1008.4 |
| 20260902051106 | 59 | 222 | 1.0 | 5.0 | 0.00 | 0.03 | 0.03 | 86 | 1008.5 |
| 20260902050608 | 59 | 195 | 1.0 | 5.0 | 0.00 | 0.03 | 0.03 | 86 | 1008.5 |
| 20260902050107 | 59 | 195 | 0.0 | 5.0 | 0.00 | 0.03 | 0.03 | 86 | 1008.5 |
| 20260902045606 | 59 | 229 | 1.0 | 3.0 | 0.00 | 0.03 | 0.03 | 86 | 1008.6 |
| 20260902045107 | 59 | 225 | 1.0 | 6.0 | 0.00 | 0.03 | 0.03 | 86 | 1008.4 |
| 20260902044607 | 59 | 227 | 1.0 | 6.0 | 0.00 | 0.03 | 0.03 | 86 | 1008.5 |
| 20260902044106 | 59 | 195 | 1.0 | 3.0 | 0.00 | 0.03 | 0.03 | 86 | 1008.5 |
| 20260902043606 | 59 | 195 | 1.0 | 3.0 | 0.00 | 0.03 | 0.03 | 86 | 1008.5 |
| 20260902042107 | 60 | 195 | 1.0 | 5.0 | 0.00 | 0.03 | 0.03 | 86 | 1008.7 |
| 20260902041607 | 60 | 195 | 1.0 | 5.0 | 0.00 | 0.03 | 0.03 | 86 | 1008.7 |
| 20260902041107 | 60 | 195 | 1.0 | 5.0 | 0.00 | 0.03 | 0.03 | 86 | 1008.7 |
| 20260902040607 | 60 | 195 | 2.0 | 5.0 | 0.00 | 0.03 | 0.03 | 86 | 1008.8 |
| 20260902040107 | 60 | 195 | 1.0 | 3.0 | 0.00 | 0.03 | 0.03 | 86 | 1008.7 |
| 20260902035607 | 60 | 195 | 1.0 | 3.0 | 0.00 | 0.03 | 0.03 | 86 | 1008.7 |
| 20260902034607 | 60 | 195 | 0.0 | 3.0 | 0.00 | 0.03 | 0.03 | 85 | 1008.6 |
| 20260902034107 | 61 | 195 | 1.0 | 3.0 | 0.00 | 0.03 | 0.03 | 85 | 1008.6 |
| 20260902033608 | 61 | 195 | 1.0 | 3.0 | 0.00 | 0.03 | 0.03 | 85 | 1008.6 |
| 20260902032606 | 61 | 195 | 1.0 | 3.0 | 0.00 | 0.03 | 0.03 | 85 | 1008.6 |
| 20260902032108 | 61 | 195 | 1.0 | 3.0 | 0.00 | 0.03 | 0.03 | 84 | 1008.6 |
| 20260902031608 | 61 | 195 | 0.0 | 3.0 | 0.00 | 0.03 | 0.03 | 84 | 1008.6 |
| 20260902031106 | 61 | 195 | 1.0 | 3.0 | 0.00 | 0.03 | 0.03 | 84 | 1008.6 |
| 20260902030606 | 61 | 195 | 1.0 | 3.0 | 0.00 | 0.03 | 0.03 | 84 | 1008.6 |
| 20260902030106 | 61 | 195 | 0.0 | 3.0 | 0.00 | 0.03 | 0.03 | 84 | 1008.7 |
| 20260902025106 | 62 | 195 | 0.0 | 3.0 | 0.00 | 0.03 | 0.03 | 83 | 1008.8 |
| 20260902024114 | 62 | 195 | 1.0 | 3.0 | 0.00 | 0.03 | 0.03 | 83 | 1008.8 |
| 20260902023606 | 62 | 195 | 1.0 | 3.0 | 0.00 | 0.03 | 0.03 | 83 | 1008.8 |
| 20260902023108 | 62 | 195 | 1.0 | 3.0 | 0.00 | 0.03 | 0.03 | 83 | 1008.7 |
| 20260902022611 | 62 | 195 | 1.0 | 3.0 | 0.00 | 0.03 | 0.03 | 83 | 1008.9 |
| 20260902022106 | 62 | 195 | 1.0 | 3.0 | 0.00 | 0.03 | 0.03 | 82 | 1008.9 |
| 20260902021607 | 63 | 218 | 1.0 | 3.0 | 0.00 | 0.03 | 0.03 | 82 | 1008.9 |
| 20260902021106 | 63 | 224 | 1.0 | 3.0 | 0.00 | 0.03 | 0.03 | 82 | 1009.0 |
| 20260902020610 | 63 | 195 | 2.0 | 3.0 | 0.00 | 0.03 | 0.03 | 82 | 1009.0 |
| 20260902015608 | 63 | 195 | 1.0 | 3.0 | 0.00 | 0.03 | 0.03 | 82 | 1009.1 |
| 20260902015108 | 63 | 195 | 1.0 | 3.0 | 0.00 | 0.03 | 0.03 | 82 | 1009.1 |
| 20260902013608 | 64 | 209 | 1.0 | 3.0 | 0.00 | 0.03 | 0.03 | 82 | 1009.2 |
| 20260902013107 | 64 | 209 | 1.0 | 3.0 | 0.03 | 0.03 | 0.03 | 82 | 1009.2 |
| 20260902012614 | 64 | 195 | 1.0 | 5.0 | 0.03 | 0.03 | 0.03 | 82 | 1009.2 |
| 20260902011622 | 64 | 199 | 1.0 | 5.0 | 0.03 | 0.03 | 0.03 | 82 | 1009.2 |
| 20260902011107 | 64 | 195 | 3.0 | 5.0 | 0.03 | 0.03 | 0.03 | 82 | 1009.2 |
| 20260902010608 | 64 | 199 | 2.0 | 3.0 | 0.03 | 0.03 | 0.03 | 82 | 1009.1 |
| 20260902010106 | 64 | 195 | 2.0 | 3.0 | 0.03 | 0.03 | 0.03 | 82 | 1009.1 |
| 20260902005607 | 64 | 197 | 2.0 | 3.0 | 0.03 | 0.03 | 0.03 | 82 | 1009.1 |
| 20260902005105 | 64 | 209 | 1.0 | 3.0 | 0.03 | 0.03 | 0.03 | 81 | 1009.1 |
| 20260902004605 | 65 | 209 | 1.0 | 3.0 | 0.03 | 0.03 | 0.03 | 81 | 1009.0 |
| 20260902003606 | 65 | 214 | 1.0 | 3.0 | 0.03 | 0.03 | 0.03 | 81 | 1009.0 |
| 20260902003105 | 65 | 213 | 1.0 | 3.0 | 0.00 | 0.00 | 0.00 | 80 | 1009.1 |
| 20260902002106 | 65 | 212 | 1.0 | 3.0 | 0.00 | 0.00 | 0.00 | 80 | 1009.0 |
| 20260902001605 | 65 | 213 | 0.0 | 3.0 | 0.00 | 0.00 | 0.00 | 80 | 1009.0 |
| 20260902001105 | 65 | 212 | 1.0 | 3.0 | 0.00 | 0.00 | 0.00 | 80 | 1009.0 |
| 20260902000105 | 65 | 212 | 1.0 | 3.0 | 0.00 | 0.00 | 0.00 | 80 | 1009.0 |
| 20260901235605 | 65 | 195 | 1.0 | 3.0 | 0.00 | 0.00 | 0.00 | 81 | 1009.1 |
| 20260901235105 | 65 | 197 | 2.0 | 3.0 | 0.00 | 0.00 | 0.00 | 81 | 1009.0 |
| 20260901234605 | 65 | 195 | 0.0 | 3.0 | 0.00 | 0.00 | 0.00 | 80 | 1009.1 |
| 20260901234105 | 65 | 207 | 1.0 | 3.0 | 0.00 | 0.00 | 0.00 | 80 | 1009.1 |
| 20260901233607 | 65 | 195 | 1.0 | 3.0 | 0.00 | 0.00 | 0.00 | 81 | 1009.1 |
| 20260901233105 | 65 | 208 | 1.0 | 3.0 | 0.00 | 0.00 | 0.00 | 81 | 1009.2 |
| 20260901232606 | 65 | 195 | 1.0 | 3.0 | 0.00 | 0.00 | 0.00 | 81 | 1009.2 |
| 20260901232106 | 65 | 215 | 1.0 | 3.0 | 0.00 | 0.00 | 0.00 | 81 | 1009.3 |
| 20260901231605 | 65 | 198 | 1.0 | 3.0 | 0.00 | 0.00 | 0.00 | 82 | 1009.4 |
| 20260901231106 | 65 | 195 | 1.0 | 3.0 | 0.00 | 0.00 | 0.00 | 83 | 1009.3 |
| 20260901230605 | 65 | 195 | 1.0 | 3.0 | 0.00 | 0.00 | 0.00 | 83 | 1009.4 |
| 20260901225605 | 65 | 210 | 1.0 | 3.0 | 0.00 | 0.00 | 0.00 | 83 | 1009.5 |
| 20260901225106 | 65 | 214 | 0.0 | 3.0 | 0.00 | 0.00 | 0.00 | 82 | 1009.4 |
| 20260901224605 | 65 | 214 | 1.0 | 3.0 | 0.00 | 0.00 | 0.00 | 81 | 1009.5 |
| 20260901224105 | 65 | 212 | 1.0 | 3.0 | 0.00 | 0.00 | 0.00 | 80 | 1009.5 |
| 20260901223606 | 65 | 220 | 1.0 | 3.0 | 0.00 | 0.00 | 0.00 | 79 | 1009.5 |
| 20260901223105 | 66 | 214 | 1.0 | 5.0 | 0.00 | 0.00 | 0.00 | 77 | 1009.4 |
| 20260901222606 | 67 | 215 | 1.0 | 5.0 | 0.00 | 0.00 | 0.00 | 77 | 1009.5 |
| 20260901222106 | 68 | 210 | 1.0 | 6.0 | 0.00 | 0.00 | 0.00 | 76 | 1009.4 |
| 20260901221605 | 68 | 195 | 2.0 | 6.0 | 0.00 | 0.00 | 0.00 | 76 | 1009.4 |
| 20260901221106 | 68 | 213 | 1.0 | 6.0 | 0.00 | 0.00 | 0.00 | 77 | 1009.3 |
| 20260901220605 | 68 | 211 | 1.0 | 6.0 | 0.00 | 0.00 | 0.00 | 75 | 1009.4 |
| 20260901220107 | 68 | 212 | 2.0 | 6.0 | 0.00 | 0.00 | 0.00 | 75 | 1009.3 |
| 20260901215606 | 68 | 213 | 2.0 | 5.0 | 0.00 | 0.00 | 0.00 | 76 | 1009.2 |
| 20260901215106 | 68 | 195 | 2.0 | 3.0 | 0.00 | 0.00 | 0.00 | 78 | 1009.3 |
| 20260901214605 | 67 | 208 | 2.0 | 8.0 | 0.00 | 0.00 | 0.00 | 78 | 1009.2 |
| 20260901214106 | 67 | 211 | 1.0 | 8.0 | 0.00 | 0.00 | 0.00 | 78 | 1009.3 |
| 20260901213606 | 67 | 200 | 2.0 | 9.0 | 0.00 | 0.00 | 0.00 | 78 | 1009.4 |
| 20260901213105 | 67 | 195 | 2.0 | 9.0 | 0.00 | 0.00 | 0.00 | 77 | 1009.3 |
| 20260901212104 | 68 | 195 | 1.0 | 5.0 | 0.00 | 0.00 | 0.00 | 77 | 1009.4 |
| 20260901211605 | 68 | 195 | 2.0 | 3.0 | 0.00 | 0.00 | 0.00 | 76 | 1009.4 |
| 20260901211105 | 68 | 216 | 1.0 | 5.0 | 0.00 | 0.00 | 0.00 | 77 | 1009.4 |